Time,TemperatureF,DewpointF,PressureIn,WindDirection,WindDirectionDegrees,WindSpeedMPH,WindSpeedGustMPH,Humidity,HourlyPrecipIn,Conditions,Clouds,dailyrainin,SoftwareType,DateUTC
2013-01-28 00:01:00,21.7,-6.4,30.35,South,180,0.0,0.0,28,0.00,CLR,,0.00,WeatherDisplay:10.37,2013-01-28 05:01:00,
2013-01-28 00:03:00,21.6,-7.3,30.36,South,180,0.0,0.0,27,0.00,CLR,,0.00,WeatherDisplay:10.37,2013-01-28 05:03:00,
2013-01-28 00:08:00,21.6,-7.3,30.36,West,270,1.1,0.0,27,0.00,CLR,,0.00,WeatherDisplay:10.37,2013-01-28 05:08:00,
2013-01-28 00:13:00,21.9,-6.3,30.36,West,270,1.1,0.0,28,0.00,CLR,,0.00,WeatherDisplay:10.37,2013-01-28 05:13:00,
2013-01-28 00:18:00,22.3,-6.0,30.36,South,180,1.1,0.0,28,0.00,CLR,,0.00,WeatherDisplay:10.37,2013-01-28 05:18:00,
2013-01-28 00:23:00,22.6,-5.6,30.35,South,180,2.3,2.3,28,0.00,CLR,,0.00,WeatherDisplay:10.37,2013-01-28 05:23:00,
2013-01-28 00:28:00,22.8,-6.2,30.36,South,180,2.3,2.3,27,0.00,CLR,,0.00,WeatherDisplay:10.37,2013-01-28 05:28:00,
2013-01-28 00:33:00,23.0,-6.9,30.36,NW,315,1.1,0.0,26,0.00,CLR,,0.00,WeatherDisplay:10.37,2013-01-28 05:33:00,
2013-01-28 00:38:00,23.0,-6.9,30.36,NW,315,2.3,0.0,26,0.00,CLR,,0.00,WeatherDisplay:10.37,2013-01-28 05:38:00,
2013-01-28 00:43:00,22.8,-7.0,30.36,South,180,1.1,1.1,26,0.00,CLR,,0.00,WeatherDisplay:10.37,2013-01-28 05:43:00,
2013-01-28 00:48:00,23.0,-6.9,30.36,South,180,2.3,2.3,26,0.00,CLR,,0.00,WeatherDisplay:10.37,2013-01-28 05:48:00,
2013-01-28 00:53:00,23.2,-6.7,30.37,South,180,1.1,0.0,26,0.00,CLR,,0.00,WeatherDisplay:10.37,2013-01-28 05:53:00,
2013-01-28 00:58:00,23.4,-7.4,30.37,SSE,158,1.1,1.1,25,0.00,CLR,,0.00,WeatherDisplay:10.37,2013-01-28 05:58:00,
2013-01-28 01:03:00,23.4,-7.4,30.37,NW,315,2.3,2.3,25,0.00,CLR,,0.00,WeatherDisplay:10.37,2013-01-28 06:03:00,
2013-01-28 01:08:00,23.4,-7.4,30.37,East,90,1.1,0.0,25,0.00,CLR,,0.00,WeatherDisplay:10.37,2013-01-28 06:08:00,
2013-01-28 01:13:00,23.4,-7.4,30.37,South,180,2.3,2.3,25,0.00,CLR,,0.00,WeatherDisplay:10.37,2013-01-28 06:13:00,
2013-01-28 01:18:00,23.4,-7.4,30.36,NW,315,0.0,0.0,25,0.00,CLR,,0.00,WeatherDisplay:10.37,2013-01-28 06:18:00,
2013-01-28 01:23:00,23.4,-7.4,30.36,South,180,1.1,0.0,25,0.00,CLR,,0.00,WeatherDisplay:10.37,2013-01-28 06:23:00,
2013-01-28 01:28:00,23.5,-7.2,30.36,West,270,1.1,0.0,25,0.00,CLR,,0.00,WeatherDisplay:10.37,2013-01-28 06:28:00,
2013-01-28 01:33:00,23.4,-7.4,30.36,NW,315,0.0,0.0,25,0.00,CLR,,0.00,WeatherDisplay:10.37,2013-01-28 06:33:00,
2013-01-28 01:38:00,23.4,-7.4,30.36,South,180,1.1,1.1,25,0.00,CLR,,0.00,WeatherDisplay:10.37,2013-01-28 06:38:00,
2013-01-28 01:43:00,23.2,-7.5,30.36,West,270,0.0,0.0,25,0.00,CLR,,0.00,WeatherDisplay:10.37,2013-01-28 06:43:00,
2013-01-28 01:48:00,23.2,-7.5,30.36,South,180,1.1,0.0,25,0.00,CLR,,0.00,WeatherDisplay:10.37,2013-01-28 06:48:00,
2013-01-28 01:53:00,23.0,-6.9,30.36,South,180,3.5,3.5,26,0.00,CLR,,0.00,WeatherDisplay:10.37,2013-01-28 06:53:00,
2013-01-28 01:58:00,23.2,-6.7,30.35,South,180,2.3,2.3,26,0.00,CLR,,0.00,WeatherDisplay:10.37,2013-01-28 06:58:00,
2013-01-28 02:03:00,23.2,-7.5,30.35,West,270,1.1,0.0,25,0.00,CLR,,0.00,WeatherDisplay:10.37,2013-01-28 07:03:00,
2013-01-28 02:08:00,23.0,-7.7,30.35,South,180,1.1,0.0,25,0.00,CLR,,0.00,WeatherDisplay:10.37,2013-01-28 07:08:00,
2013-01-28 02:13:00,22.8,-7.8,30.35,South,180,0.0,0.0,25,0.00,CLR,,0.00,WeatherDisplay:10.37,2013-01-28 07:13:00,
2013-01-28 02:18:00,22.6,-7.2,30.34,South,180,0.0,0.0,26,0.00,CLR,,0.00,WeatherDisplay:10.37,2013-01-28 07:18:00,
2013-01-28 02:23:00,22.5,-7.3,30.34,NW,315,1.1,0.0,26,0.00,CLR,,0.00,WeatherDisplay:10.37,2013-01-28 07:23:00,
2013-01-28 02:28:00,22.3,-7.5,30.34,NW,315,0.0,0.0,26,0.00,CLR,,0.00,WeatherDisplay:10.37,2013-01-28 07:28:00,
2013-01-28 02:33:00,22.1,-7.6,30.33,South,180,0.0,0.0,26,0.00,CLR,,0.00,WeatherDisplay:10.37,2013-01-28 07:33:00,
2013-01-28 02:38:00,21.9,-7.8,30.33,South,180,0.0,0.0,26,0.00,CLR,,0.00,WeatherDisplay:10.37,2013-01-28 07:38:00,
2013-01-28 02:43:00,21.4,-8.3,30.33,South,180,0.0,0.0,26,0.00,CLR,,0.00,WeatherDisplay:10.37,2013-01-28 07:43:00,
2013-01-28 02:48:00,21.2,-8.4,30.32,South,180,0.0,0.0,26,0.00,CLR,,0.00,WeatherDisplay:10.37,2013-01-28 07:48:00,
2013-01-28 02:53:00,21.0,-8.6,30.32,South,180,0.0,0.0,26,0.00,CLR,,0.00,WeatherDisplay:10.37,2013-01-28 07:53:00,
2013-01-28 02:59:00,20.8,-8.0,30.32,South,180,0.0,0.0,27,0.00,CLR,,0.00,WeatherDisplay:10.37,2013-01-28 07:59:00,
2013-01-28 03:04:00,20.8,-8.0,30.32,South,180,0.0,0.0,27,0.00,CLR,,0.00,WeatherDisplay:10.37,2013-01-28 08:04:00,
2013-01-28 03:09:00,21.0,-7.1,30.32,South,180,0.0,0.0,28,0.00,CLR,,0.00,WeatherDisplay:10.37,2013-01-28 08:09:00,
2013-01-28 03:14:00,21.2,-6.9,30.32,South,180,0.0,0.0,28,0.00,CLR,,0.00,WeatherDisplay:10.37,2013-01-28 08:14:00,
2013-01-28 03:19:00,21.4,-6.0,30.32,South,180,0.0,0.0,29,0.00,CLR,,0.00,WeatherDisplay:10.37,2013-01-28 08:19:00,
2013-01-28 03:24:00,21.4,-6.0,30.32,SW,225,0.0,0.0,29,0.00,CLR,,0.00,WeatherDisplay:10.37,2013-01-28 08:24:00,
2013-01-28 03:29:00,21.6,-5.9,30.32,SW,225,0.0,0.0,29,0.00,CLR,,0.00,WeatherDisplay:10.37,2013-01-28 08:29:00,
2013-01-28 03:34:00,21.9,-5.5,30.32,South,180,0.0,0.0,29,0.00,CLR,,0.00,WeatherDisplay:10.37,2013-01-28 08:34:00,
2013-01-28 03:39:00,22.1,-4.0,30.32,South,180,1.1,0.0,31,0.00,CLR,,0.00,WeatherDisplay:10.37,2013-01-28 08:39:00,
2013-01-28 03:44:00,22.1,-4.7,30.32,West,270,0.0,0.0,30,0.00,CLR,,0.00,WeatherDisplay:10.37,2013-01-28 08:44:00,
2013-01-28 03:49:00,22.1,-4.7,30.32,West,270,0.0,0.0,30,0.00,CLR,,0.00,WeatherDisplay:10.37,2013-01-28 08:49:00,
2013-01-28 03:54:00,22.1,-4.7,30.31,West,270,0.0,0.0,30,0.00,CLR,,0.00,WeatherDisplay:10.37,2013-01-28 08:54:00,
2013-01-28 03:59:00,21.9,-4.8,30.31,South,180,0.0,0.0,30,0.00,CLR,,0.00,WeatherDisplay:10.37,2013-01-28 08:59:00,
2013-01-28 04:04:00,22.1,-4.7,30.31,South,180,0.0,0.0,30,0.00,CLR,,0.00,WeatherDisplay:10.37,2013-01-28 09:04:00,
2013-01-28 04:09:00,22.3,-3.8,30.31,South,180,0.0,0.0,31,0.00,CLR,,0.00,WeatherDisplay:10.37,2013-01-28 09:09:00,
2013-01-28 04:14:00,22.5,-3.7,30.31,South,180,1.1,1.1,31,0.00,CLR,,0.00,WeatherDisplay:10.37,2013-01-28 09:14:00,
2013-01-28 04:19:00,22.8,-3.4,30.31,West,270,1.1,0.0,31,0.00,CLR,,0.00,WeatherDisplay:10.37,2013-01-28 09:19:00,
2013-01-28 04:24:00,23.2,-3.0,30.30,SSW,202,2.3,2.3,31,0.00,CLR,,0.00,WeatherDisplay:10.37,2013-01-28 09:24:00,
2013-01-28 04:29:00,23.2,-3.7,30.30,SSW,202,0.0,0.0,30,0.00,CLR,,0.00,WeatherDisplay:10.37,2013-01-28 09:29:00,
2013-01-28 04:34:00,23.2,-3.7,30.30,SSW,202,0.0,0.0,30,0.00,CLR,,0.00,WeatherDisplay:10.37,2013-01-28 09:34:00,
2013-01-28 04:39:00,23.2,-3.7,30.30,SSW,202,0.0,0.0,30,0.00,CLR,,0.00,WeatherDisplay:10.37,2013-01-28 09:39:00,
2013-01-28 04:44:00,23.4,-3.6,30.30,South,180,0.0,0.0,30,0.00,CLR,,0.00,WeatherDisplay:10.37,2013-01-28 09:44:00,
2013-01-28 04:49:00,23.5,-3.4,30.30,South,180,0.0,0.0,30,0.00,CLR,,0.00,WeatherDisplay:10.37,2013-01-28 09:49:00,
2013-01-28 04:54:00,23.5,-3.4,30.30,South,180,0.0,0.0,30,0.00,CLR,,0.00,WeatherDisplay:10.37,2013-01-28 09:54:00,
2013-01-28 04:59:00,23.7,-3.3,30.30,South,180,0.0,0.0,30,0.00,CLR,,0.00,WeatherDisplay:10.37,2013-01-28 09:59:00,
2013-01-28 05:04:00,23.9,-3.1,30.30,SW,225,0.0,0.0,30,0.00,CLR,,0.00,WeatherDisplay:10.37,2013-01-28 10:04:00,
2013-01-28 05:09:00,23.9,-3.1,30.30,South,180,1.1,0.0,30,0.00,CLR,,0.00,WeatherDisplay:10.37,2013-01-28 10:09:00,
2013-01-28 05:14:00,24.1,-2.9,30.30,SW,225,1.1,0.0,30,0.00,CLR,,0.00,WeatherDisplay:10.37,2013-01-28 10:14:00,
2013-01-28 05:19:00,24.3,-2.8,30.30,West,270,0.0,0.0,30,0.00,CLR,,0.00,WeatherDisplay:10.37,2013-01-28 10:19:00,
2013-01-28 05:24:00,24.4,-3.3,30.30,South,180,1.1,0.0,29,0.00,CLR,,0.00,WeatherDisplay:10.37,2013-01-28 10:24:00,
2013-01-28 05:29:00,24.6,-3.2,30.29,South,180,0.0,0.0,29,0.00,CLR,,0.00,WeatherDisplay:10.37,2013-01-28 10:29:00,
2013-01-28 05:34:00,24.8,-3.0,30.29,South,180,0.0,0.0,29,0.00,CLR,,0.00,WeatherDisplay:10.37,2013-01-28 10:34:00,
2013-01-28 05:39:00,24.8,-3.0,30.29,South,180,2.3,0.0,29,0.00,CLR,,0.00,WeatherDisplay:10.37,2013-01-28 10:39:00,
2013-01-28 05:44:00,25.0,-2.9,30.30,South,180,1.1,0.0,29,0.00,CLR,,0.00,WeatherDisplay:10.37,2013-01-28 10:44:00,
2013-01-28 05:49:00,25.2,-3.4,30.29,WSW,248,1.1,0.0,28,0.00,CLR,,0.00,WeatherDisplay:10.37,2013-01-28 10:49:00,
2013-01-28 05:54:00,25.3,-3.3,30.29,South,180,1.1,0.0,28,0.00,CLR,,0.00,WeatherDisplay:10.37,2013-01-28 10:54:00,
2013-01-28 05:59:00,25.5,-3.1,30.29,SSW,202,0.0,0.0,28,0.00,CLR,,0.00,WeatherDisplay:10.37,2013-01-28 10:59:00,
2013-01-28 06:04:00,25.7,-3.0,30.29,SW,225,1.6,0.0,28,0.00,CLR,,0.00,WeatherDisplay:10.37,2013-01-28 11:04:00,
2013-01-28 06:09:00,25.9,-2.8,30.28,South,180,1.1,0.0,28,0.00,CLR,,0.00,WeatherDisplay:10.37,2013-01-28 11:09:00,
2013-01-28 06:14:00,26.1,-2.7,30.28,South,180,0.0,0.0,28,0.00,CLR,,0.00,WeatherDisplay:10.37,2013-01-28 11:14:00,
2013-01-28 06:19:00,26.2,-2.5,30.28,South,180,1.1,0.0,28,0.00,CLR,,0.00,WeatherDisplay:10.37,2013-01-28 11:19:00,
2013-01-28 06:24:00,26.4,-3.1,30.29,SW,225,0.0,0.0,27,0.00,CLR,,0.00,WeatherDisplay:10.37,2013-01-28 11:24:00,
2013-01-28 06:29:00,26.6,-3.0,30.29,SW,225,0.0,0.0,27,0.00,CLR,,0.00,WeatherDisplay:10.37,2013-01-28 11:29:00,
2013-01-28 06:34:00,26.6,-3.0,30.29,SW,225,0.0,0.0,27,0.00,CLR,,0.00,WeatherDisplay:10.37,2013-01-28 11:34:00,
2013-01-28 06:39:00,26.8,-2.8,30.28,SW,225,0.0,0.0,27,0.00,CLR,,0.00,WeatherDisplay:10.37,2013-01-28 11:39:00,
2013-01-28 06:44:00,26.8,-2.8,30.28,SW,225,0.0,0.0,27,0.00,CLR,,0.00,WeatherDisplay:10.37,2013-01-28 11:44:00,
2013-01-28 06:49:00,27.0,-2.6,30.28,SW,225,1.6,0.0,27,0.00,CLR,,0.00,WeatherDisplay:10.37,2013-01-28 11:49:00,
2013-01-28 06:54:00,27.0,-2.6,30.28,South,180,1.1,0.0,27,0.00,CLR,,0.00,WeatherDisplay:10.37,2013-01-28 11:54:00,
2013-01-28 06:59:00,27.1,-2.5,30.29,SSW,202,2.3,0.0,27,0.00,CLR,,0.00,WeatherDisplay:10.37,2013-01-28 11:59:00,
2013-01-28 07:04:00,27.3,-2.3,30.29,South,180,1.1,1.6,27,0.00,CLR,,0.00,WeatherDisplay:10.37,2013-01-28 12:04:00,
2013-01-28 07:09:00,27.5,-2.2,30.29,South,180,2.3,2.3,27,0.00,CLR,,0.00,WeatherDisplay:10.37,2013-01-28 12:09:00,
2013-01-28 07:14:00,27.7,-2.0,30.30,SW,225,3.5,0.0,27,0.00,CLR,,0.00,WeatherDisplay:10.37,2013-01-28 12:14:00,
2013-01-28 07:20:00,27.7,-2.0,30.29,South,180,3.5,3.5,27,0.00,CLR,,0.00,WeatherDisplay:10.37,2013-01-28 12:20:00,
2013-01-28 07:25:00,27.9,-1.9,30.29,South,180,2.3,0.0,27,0.00,CLR,,0.00,WeatherDisplay:10.37,2013-01-28 12:25:00,
2013-01-28 07:30:00,28.0,-1.7,30.29,SSW,198,0.0,2.0,27,0.00,CLR,,0.00,WeatherDisplay:10.37,2013-01-28 12:30:00,
2013-01-28 07:35:00,28.2,-1.5,30.29,SSW,213,1.0,4.0,27,0.00,CLR,,0.00,WeatherDisplay:10.37,2013-01-28 12:35:00,
2013-01-28 07:40:00,28.6,-1.2,30.29,South,180,3.5,3.5,27,0.00,CLR,,0.00,WeatherDisplay:10.37,2013-01-28 12:40:00,
2013-01-28 07:45:00,28.8,-1.1,30.29,South,187,0.0,3.0,27,0.00,CLR,,0.00,WeatherDisplay:10.37,2013-01-28 12:45:00,
2013-01-28 07:50:00,29.1,0.0,30.28,SW,225,2.3,2.3,28,0.00,CLR,,0.00,WeatherDisplay:10.37,2013-01-28 12:50:00,
2013-01-28 07:55:00,29.3,-0.6,30.28,South,189,0.0,5.0,27,0.00,CLR,,0.00,WeatherDisplay:10.37,2013-01-28 12:55:00,
2013-01-28 08:00:00,29.5,0.3,30.28,SSW,198,0.0,3.0,28,0.00,CLR,,0.00,WeatherDisplay:10.37,2013-01-28 13:00:00,
2013-01-28 08:05:00,29.7,0.5,30.28,SSW,198,0.0,3.0,28,0.00,CLR,,0.00,WeatherDisplay:10.37,2013-01-28 13:05:00,
2013-01-28 08:10:00,29.8,0.6,30.27,South,185,2.0,7.0,28,0.00,CLR,,0.00,WeatherDisplay:10.37,2013-01-28 13:10:00,
2013-01-28 08:15:00,30.2,0.9,30.27,SW,225,3.5,3.5,28,0.00,CLR,,0.00,WeatherDisplay:10.37,2013-01-28 13:15:00,
2013-01-28 08:20:00,30.4,0.3,30.27,West,270,2.3,2.3,27,0.00,CLR,,0.00,WeatherDisplay:10.37,2013-01-28 13:20:00,
2013-01-28 08:25:00,30.7,0.6,30.27,South,180,3.5,3.5,27,0.00,CLR,,0.00,WeatherDisplay:10.37,2013-01-28 13:25:00,
2013-01-28 08:30:00,30.9,0.8,30.27,SW,226,1.0,4.0,27,0.00,CLR,,0.00,WeatherDisplay:10.37,2013-01-28 13:30:00,
2013-01-28 08:35:00,30.9,0.8,30.28,NW,315,2.3,2.3,27,0.00,CLR,,0.00,WeatherDisplay:10.37,2013-01-28 13:35:00,
2013-01-28 08:40:00,31.1,1.0,30.27,SW,217,1.0,6.0,27,0.00,CLR,,0.00,WeatherDisplay:10.37,2013-01-28 13:40:00,
2013-01-28 08:45:00,31.1,1.0,30.28,West,270,3.5,3.5,27,0.00,CLR,,0.00,WeatherDisplay:10.37,2013-01-28 13:45:00,
2013-01-28 08:50:00,31.3,1.1,30.27,SE,135,3.5,0.0,27,0.00,CLR,,0.00,WeatherDisplay:10.37,2013-01-28 13:50:00,
2013-01-28 08:55:00,31.4,1.2,30.28,South,185,1.0,4.0,27,0.00,CLR,,0.00,WeatherDisplay:10.37,2013-01-28 13:55:00,
2013-01-28 09:00:00,31.5,2.0,30.28,South,179,1.0,6.0,28,0.00,CLR,,0.00,WeatherDisplay:10.37,2013-01-28 14:00:00,
2013-01-28 09:05:00,31.6,3.0,30.28,South,180,3.5,3.5,29,0.00,CLR,,0.00,WeatherDisplay:10.37,2013-01-28 14:05:00,
2013-01-28 09:10:00,31.6,3.7,30.28,SSW,208,2.0,6.0,30,0.00,CLR,,0.00,WeatherDisplay:10.37,2013-01-28 14:10:00,
2013-01-28 09:15:00,31.6,5.8,30.28,South,180,5.8,5.8,33,0.00,CLR,,0.00,WeatherDisplay:10.37,2013-01-28 14:15:00,
2013-01-28 09:20:00,31.8,7.2,30.27,NW,315,5.8,5.8,35,0.00,CLR,,0.00,WeatherDisplay:10.37,2013-01-28 14:20:00,
2013-01-28 09:25:00,31.8,8.5,30.27,SSW,199,1.0,7.0,37,0.00,CLR,,0.00,WeatherDisplay:10.37,2013-01-28 14:25:00,
2013-01-28 09:30:00,31.8,9.6,30.27,South,180,3.5,3.5,39,0.00,CLR,,0.00,WeatherDisplay:10.37,2013-01-28 14:30:00,
2013-01-28 09:35:00,32.0,10.4,30.27,South,175,0.0,7.0,40,0.00,CLR,,0.00,WeatherDisplay:10.37,2013-01-28 14:35:00,
2013-01-28 09:40:00,32.2,11.1,30.26,South,180,4.6,4.6,41,0.00,CLR,,0.00,WeatherDisplay:10.37,2013-01-28 14:40:00,
2013-01-28 09:45:00,32.4,11.8,30.26,South,180,3.5,3.5,42,0.00,CLR,,0.00,WeatherDisplay:10.37,2013-01-28 14:45:00,
2013-01-28 09:50:00,32.5,12.5,30.25,SSW,208,1.0,5.0,43,0.00,CLR,,0.00,WeatherDisplay:10.37,2013-01-28 14:50:00,
2013-01-28 09:55:00,32.7,12.7,30.25,SSW,211,1.0,6.0,43,0.00,CLR,,0.00,WeatherDisplay:10.37,2013-01-28 14:55:00,
2013-01-28 10:00:00,32.9,13.3,30.25,NE,45,3.5,3.5,44,0.00,CLR,,0.00,WeatherDisplay:10.37,2013-01-28 15:00:00,
2013-01-28 10:05:00,33.3,13.7,30.25,South,190,2.0,7.0,44,0.00,CLR,,0.00,WeatherDisplay:10.37,2013-01-28 15:05:00,
2013-01-28 10:10:00,33.1,14.0,30.25,SW,225,4.6,4.6,45,0.00,CLR,,0.00,WeatherDisplay:10.37,2013-01-28 15:10:00,
2013-01-28 10:14:00,33.3,14.7,30.24,South,180,4.6,0.0,46,0.00,CLR,,0.00,WeatherDisplay:10.37,2013-01-28 15:14:00,
2013-01-28 10:20:00,33.3,14.7,30.24,SW,225,6.9,6.9,46,0.00,CLR,,0.00,WeatherDisplay:10.37,2013-01-28 15:20:00,
2013-01-28 10:25:00,33.3,15.7,30.24,SW,225,5.8,5.8,48,0.00,CLR,,0.00,WeatherDisplay:10.37,2013-01-28 15:25:00,
2013-01-28 10:30:00,33.3,16.1,30.24,SSW,207,2.0,6.0,49,0.00,CLR,,0.00,WeatherDisplay:10.37,2013-01-28 15:30:00,
2013-01-28 10:35:00,33.4,16.3,30.23,SSW,201,2.0,6.0,49,0.00,CLR,,0.00,WeatherDisplay:10.37,2013-01-28 15:35:00,
2013-01-28 10:40:00,33.8,16.6,30.23,SSW,202,4.6,4.6,49,0.00,CLR,,0.00,WeatherDisplay:10.37,2013-01-28 15:40:00,
2013-01-28 10:45:00,34.0,16.8,30.23,SSW,197,2.0,6.0,49,0.00,CLR,,0.00,WeatherDisplay:10.37,2013-01-28 15:45:00,
2013-01-28 10:50:00,33.9,16.8,30.23,SW,215,3.0,7.0,49,0.00,CLR,,0.00,WeatherDisplay:10.37,2013-01-28 15:50:00,
2013-01-28 10:55:00,33.8,16.6,30.22,SSE,158,3.5,3.5,49,0.00,CLR,,0.00,WeatherDisplay:10.37,2013-01-28 15:55:00,
2013-01-28 11:00:00,33.9,17.2,30.22,South,179,1.0,6.0,50,0.00,CLR,,0.00,WeatherDisplay:10.37,2013-01-28 16:00:00,
2013-01-28 11:05:00,34.2,17.4,30.21,South,180,3.5,3.5,50,0.01,RA,,0.01,WeatherDisplay:10.37,2013-01-28 16:05:00,
2013-01-28 11:10:00,34.9,18.1,30.21,SW,226,1.0,6.0,50,0.00,RA,,0.01,WeatherDisplay:10.37,2013-01-28 16:10:00,
2013-01-28 11:15:00,34.9,17.6,30.21,South,189,2.0,7.0,49,0.00,CLR,,0.01,WeatherDisplay:10.37,2013-01-28 16:15:00,
2013-01-28 11:20:00,34.5,16.8,30.22,SW,225,5.8,5.8,48,0.01,CLR,,0.01,WeatherDisplay:10.37,2013-01-28 16:20:00,
2013-01-28 11:25:00,34.5,17.3,30.20,SW,225,3.5,3.5,49,0.01,CLR,,0.01,WeatherDisplay:10.37,2013-01-28 16:25:00,
2013-01-28 11:30:00,34.7,17.9,30.20,SSW,192,1.0,6.0,50,0.00,CLR,,0.01,WeatherDisplay:10.37,2013-01-28 16:30:00,
2013-01-28 11:35:00,34.9,18.1,30.19,SE,135,5.8,5.8,50,0.01,CLR,,0.01,WeatherDisplay:10.37,2013-01-28 16:35:00,
2013-01-28 11:40:00,34.7,17.5,30.18,South,189,1.0,8.0,49,0.00,CLR,,0.01,WeatherDisplay:10.37,2013-01-28 16:40:00,
2013-01-28 11:45:00,34.7,17.9,30.17,South,180,3.5,3.5,50,0.01,CLR,,0.01,WeatherDisplay:10.37,2013-01-28 16:45:00,
2013-01-28 11:50:00,35.1,18.3,30.17,SSW,202,4.6,4.6,50,0.01,CLR,,0.01,WeatherDisplay:10.37,2013-01-28 16:50:00,
2013-01-28 11:55:00,35.1,18.3,30.17,SSW,207,2.0,6.0,50,0.00,CLR,,0.01,WeatherDisplay:10.37,2013-01-28 16:55:00,
2013-01-28 12:00:00,35.2,18.0,30.17,SSW,193,0.0,6.0,49,0.00,CLR,,0.01,WeatherDisplay:10.37,2013-01-28 17:00:00,
2013-01-28 12:05:00,35.1,17.3,30.17,SW,225,4.6,0.0,48,0.00,CLR,,0.01,WeatherDisplay:10.37,2013-01-28 17:05:00,
2013-01-28 12:10:00,35.1,17.3,30.16,SSW,201,0.0,5.0,48,0.00,CLR,,0.01,WeatherDisplay:10.37,2013-01-28 17:10:00,
2013-01-28 12:15:00,35.1,17.8,30.15,SE,135,3.5,0.0,49,0.00,CLR,,0.01,WeatherDisplay:10.37,2013-01-28 17:15:00,
2013-01-28 12:20:00,35.1,17.8,30.14,North,0,1.1,1.6,49,0.00,CLR,,0.01,WeatherDisplay:10.37,2013-01-28 17:20:00,
2013-01-28 12:25:00,35.1,17.3,30.14,South,180,3.5,0.0,48,0.00,CLR,,0.01,WeatherDisplay:10.37,2013-01-28 17:25:00,
2013-01-28 12:30:00,35.1,17.3,30.13,South,180,3.5,3.5,48,0.00,CLR,,0.01,WeatherDisplay:10.37,2013-01-28 17:30:00,
2013-01-28 12:35:00,35.1,17.3,30.12,SSW,196,1.0,4.0,48,0.00,CLR,,0.01,WeatherDisplay:10.37,2013-01-28 17:35:00,
2013-01-28 12:40:00,34.9,16.7,30.11,South,180,6.9,6.9,47,0.00,CLR,,0.01,WeatherDisplay:10.37,2013-01-28 17:40:00,
2013-01-28 12:45:00,35.1,16.8,30.10,NW,315,4.6,4.6,47,0.00,CLR,,0.01,WeatherDisplay:10.37,2013-01-28 17:45:00,
2013-01-28 12:50:00,35.2,17.5,30.11,South,182,2.0,5.0,48,0.00,CLR,,0.01,WeatherDisplay:10.37,2013-01-28 17:50:00,
2013-01-28 12:55:00,35.2,17.0,30.10,SW,225,6.9,6.9,47,0.00,CLR,,0.01,WeatherDisplay:10.37,2013-01-28 17:55:00,
2013-01-28 13:00:00,34.9,16.7,30.09,WSW,248,5.8,5.8,47,0.00,CLR,,0.01,WeatherDisplay:10.37,2013-01-28 18:00:00,
2013-01-28 13:05:00,34.9,16.7,30.08,South,179,2.0,8.0,47,0.00,CLR,,0.01,WeatherDisplay:10.37,2013-01-28 18:05:00,
2013-01-28 13:10:00,34.9,16.7,30.07,NW,315,3.5,0.0,47,0.00,CLR,,0.01,WeatherDisplay:10.37,2013-01-28 18:10:00,
2013-01-28 13:15:00,34.7,16.5,30.07,South,180,6.9,6.9,47,0.00,CLR,,0.01,WeatherDisplay:10.37,2013-01-28 18:15:00,
2013-01-28 13:20:00,34.5,16.8,30.06,SSW,194,2.0,8.0,48,0.00,CLR,,0.01,WeatherDisplay:10.37,2013-01-28 18:20:00,
2013-01-28 13:25:00,34.5,16.8,30.06,SW,225,5.8,5.8,48,0.00,CLR,,0.01,WeatherDisplay:10.37,2013-01-28 18:25:00,
2013-01-28 13:30:00,34.3,17.1,30.05,SSW,193,2.0,10.0,49,0.00,CLR,,0.01,WeatherDisplay:10.37,2013-01-28 18:30:00,
2013-01-28 13:35:00,34.3,17.1,30.05,NW,315,9.2,9.2,49,0.00,CLR,,0.01,WeatherDisplay:10.37,2013-01-28 18:35:00,
2013-01-28 13:40:00,34.5,17.8,30.05,South,180,8.1,8.1,50,0.00,CLR,,0.01,WeatherDisplay:10.37,2013-01-28 18:40:00,
2013-01-28 13:45:00,34.7,17.9,30.04,SSW,202,1.0,8.0,50,0.00,CLR,,0.01,WeatherDisplay:10.37,2013-01-28 18:45:00,
2013-01-28 13:50:00,34.7,17.9,30.04,SSW,200,5.0,8.0,50,0.00,CLR,,0.01,WeatherDisplay:10.37,2013-01-28 18:50:00,
2013-01-28 13:55:00,34.5,17.8,30.03,West,270,5.8,5.8,50,0.00,CLR,,0.01,WeatherDisplay:10.37,2013-01-28 18:55:00,
2013-01-28 14:00:00,34.5,18.2,30.03,SSW,203,2.0,9.0,51,0.00,CLR,,0.01,WeatherDisplay:10.37,2013-01-28 19:00:00,
2013-01-28 14:05:00,34.3,18.1,30.02,NW,315,6.9,6.9,51,0.01,RA,,0.02,WeatherDisplay:10.37,2013-01-28 19:05:00,
2013-01-28 14:10:00,34.3,18.5,30.02,SW,225,11.5,11.5,52,0.01,RA,,0.02,WeatherDisplay:10.37,2013-01-28 19:10:00,
2013-01-28 14:15:00,34.3,19.0,30.02,SSW,200,3.0,8.0,53,0.00,CLR,,0.02,WeatherDisplay:10.37,2013-01-28 19:15:00,
2013-01-28 14:20:00,34.2,19.2,30.02,SSW,197,3.0,6.0,54,0.00,CLR,,0.02,WeatherDisplay:10.37,2013-01-28 19:20:00,
2013-01-28 14:25:00,34.2,19.7,30.02,South,180,4.6,4.6,55,0.01,CLR,,0.02,WeatherDisplay:10.37,2013-01-28 19:25:00,
2013-01-28 14:30:00,34.2,20.1,30.01,East,90,3.5,3.5,56,0.01,CLR,,0.02,WeatherDisplay:10.37,2013-01-28 19:30:00,
2013-01-28 14:35:00,34.0,19.9,30.01,SW,225,3.5,3.5,56,0.02,RA,,0.04,WeatherDisplay:10.37,2013-01-28 19:35:00,
2013-01-28 14:40:00,34.0,20.3,30.01,SSW,195,1.0,6.0,57,0.00,RA,,0.04,WeatherDisplay:10.37,2013-01-28 19:40:00,
2013-01-28 14:45:00,34.0,20.7,30.01,South,180,4.6,4.6,58,0.02,,,0.04,WeatherDisplay:10.37,2013-01-28 19:45:00,
2013-01-28 14:50:00,34.0,21.1,30.00,South,180,2.3,2.3,59,0.02,CLR,,0.04,WeatherDisplay:10.37,2013-01-28 19:50:00,
2013-01-28 14:55:00,34.0,21.5,30.00,SSW,196,1.0,6.0,60,0.00,CLR,,0.04,WeatherDisplay:10.37,2013-01-28 19:55:00,
2013-01-28 15:00:00,34.2,22.1,30.00,SSW,194,1.0,5.0,61,0.00,CLR,,0.04,WeatherDisplay:10.37,2013-01-28 20:00:00,
2013-01-28 15:05:00,34.2,22.5,30.00,SSW,202,3.8,3.8,62,0.01,CLR,,0.04,WeatherDisplay:10.37,2013-01-28 20:05:00,
2013-01-28 15:10:00,34.2,22.5,29.99,SSW,210,1.0,4.0,62,0.00,CLR,,0.04,WeatherDisplay:10.37,2013-01-28 20:10:00,
2013-01-28 15:15:00,34.2,22.9,29.99,South,180,3.5,0.0,63,0.01,CLR,,0.04,WeatherDisplay:10.37,2013-01-28 20:15:00,
2013-01-28 15:20:00,34.2,23.2,29.99,SSW,192,1.0,6.0,64,0.00,CLR,,0.04,WeatherDisplay:10.37,2013-01-28 20:20:00,
2013-01-28 15:25:00,34.2,23.3,29.99,South,185,0.0,8.0,64,0.00,CLR,,0.04,WeatherDisplay:10.37,2013-01-28 20:25:00,
2013-01-28 15:30:00,34.3,23.8,29.99,South,180,3.5,3.5,65,0.01,CLR,,0.04,WeatherDisplay:10.37,2013-01-28 20:30:00,
2013-01-28 15:35:00,34.3,24.2,29.99,South,180,4.6,4.6,66,0.00,CLR,,0.04,WeatherDisplay:10.37,2013-01-28 20:35:00,
2013-01-28 15:40:00,34.5,24.3,29.98,South,181,2.0,7.0,66,0.00,CLR,,0.04,WeatherDisplay:10.37,2013-01-28 20:40:00,
2013-01-28 15:45:00,34.5,24.7,29.97,South,180,5.8,5.8,67,0.00,CLR,,0.04,WeatherDisplay:10.37,2013-01-28 20:45:00,
2013-01-28 15:50:00,34.5,25.0,29.97,SSW,193,1.0,6.0,68,0.00,RA,,0.05,WeatherDisplay:10.37,2013-01-28 20:50:00,
2013-01-28 15:55:00,34.5,25.0,29.96,South,180,3.5,0.0,68,0.01,RA,,0.05,WeatherDisplay:10.37,2013-01-28 20:55:00,
2013-01-28 16:00:00,34.5,25.0,29.97,South,180,4.6,4.6,68,0.01,,,0.05,WeatherDisplay:10.37,2013-01-28 21:00:00,
2013-01-28 16:05:00,34.5,25.4,29.97,SSW,199,1.0,6.0,69,0.00,CLR,,0.05,WeatherDisplay:10.37,2013-01-28 21:05:00,
2013-01-28 16:10:00,34.5,25.4,29.97,SSW,194,1.0,5.0,69,0.00,CLR,,0.05,WeatherDisplay:10.37,2013-01-28 21:10:00,
2013-01-28 16:15:00,34.5,25.7,29.97,NW,315,3.5,3.5,70,0.01,CLR,,0.05,WeatherDisplay:10.37,2013-01-28 21:15:00,
2013-01-28 16:20:00,34.5,25.7,29.96,South,177,0.0,7.0,70,0.00,RA,,0.06,WeatherDisplay:10.37,2013-01-28 21:20:00,
2013-01-28 16:25:00,34.5,26.1,29.96,SW,225,0.0,1.6,71,0.02,RA,,0.06,WeatherDisplay:10.37,2013-01-28 21:25:00,
2013-01-28 16:29:00,34.5,26.1,29.97,South,180,2.3,2.3,71,0.04,RA,,0.07,WeatherDisplay:10.37,2013-01-28 21:29:00,
2013-01-28 16:35:00,34.5,26.4,29.96,SW,225,3.5,3.5,72,0.04,RA,,0.07,WeatherDisplay:10.37,2013-01-28 21:35:00,
2013-01-28 16:40:00,34.5,26.8,29.97,South,180,3.5,3.5,73,0.04,CLR,,0.07,WeatherDisplay:10.37,2013-01-28 21:40:00,
2013-01-28 16:45:00,34.5,26.8,29.96,South,180,2.3,2.3,73,0.04,CLR,,0.07,WeatherDisplay:10.37,2013-01-28 21:45:00,
2013-01-28 16:50:00,34.5,27.1,29.96,SSW,200,1.0,5.0,74,0.00,RA,,0.08,WeatherDisplay:10.37,2013-01-28 21:50:00,
2013-01-28 16:55:00,34.5,27.4,29.96,South,180,3.5,3.5,75,0.04,RA,,0.08,WeatherDisplay:10.37,2013-01-28 21:55:00,
2013-01-28 17:00:00,34.5,27.4,29.95,South,181,0.0,3.0,75,0.00,CLR,,0.08,WeatherDisplay:10.37,2013-01-28 22:00:00,
2013-01-28 17:05:00,34.5,27.7,29.95,SSW,200,2.0,7.0,76,0.00,CLR,,0.08,WeatherDisplay:10.37,2013-01-28 22:05:00,
2013-01-28 17:10:00,34.5,27.7,29.95,SE,135,3.5,0.0,76,0.04,CLR,,0.08,WeatherDisplay:10.37,2013-01-28 22:10:00,
2013-01-28 17:15:00,34.5,28.1,29.94,SSW,194,1.0,5.0,77,0.00,CLR,,0.08,WeatherDisplay:10.37,2013-01-28 22:15:00,
2013-01-28 17:20:00,34.5,28.1,29.94,South,180,3.5,3.5,77,0.02,CLR,,0.08,WeatherDisplay:10.37,2013-01-28 22:20:00,
2013-01-28 17:25:00,34.5,28.4,29.94,South,175,0.0,3.0,78,0.00,CLR,,0.08,WeatherDisplay:10.37,2013-01-28 22:25:00,
2013-01-28 17:30:00,34.5,28.4,29.94,South,185,1.0,4.0,78,0.00,CLR,,0.08,WeatherDisplay:10.37,2013-01-28 22:30:00,
2013-01-28 17:35:00,34.5,28.7,29.94,NW,315,4.6,4.6,79,0.01,CLR,,0.08,WeatherDisplay:10.37,2013-01-28 22:35:00,
2013-01-28 17:40:00,34.5,28.7,29.94,South,180,3.5,3.5,79,0.01,CLR,,0.08,WeatherDisplay:10.37,2013-01-28 22:40:00,
2013-01-28 17:45:00,34.5,29.0,29.94,South,180,1.0,6.0,80,0.00,CLR,,0.08,WeatherDisplay:10.37,2013-01-28 22:45:00,
2013-01-28 17:50:00,34.5,29.3,29.94,South,180,3.5,0.0,81,0.00,CLR,,0.08,WeatherDisplay:10.37,2013-01-28 22:50:00,
2013-01-28 17:55:00,34.6,29.4,29.94,SSE,155,0.0,4.0,81,0.00,CLR,,0.08,WeatherDisplay:10.37,2013-01-28 22:55:00,
2013-01-28 18:00:00,34.5,29.3,29.93,SSE,150,0.0,4.0,81,0.00,CLR,,0.08,WeatherDisplay:10.37,2013-01-28 23:00:00,
2013-01-28 18:05:00,34.5,29.6,29.94,South,180,2.3,2.3,82,0.00,CLR,,0.08,WeatherDisplay:10.37,2013-01-28 23:05:00,
2013-01-28 18:10:00,34.7,29.8,29.93,South,189,1.0,5.0,82,0.00,CLR,,0.08,WeatherDisplay:10.37,2013-01-28 23:10:00,
2013-01-28 18:15:00,34.7,29.8,29.94,South,175,1.0,5.0,82,0.00,CLR,,0.08,WeatherDisplay:10.37,2013-01-28 23:15:00,
2013-01-28 18:20:00,34.7,29.8,29.94,West,270,3.5,3.5,82,0.00,CLR,,0.08,WeatherDisplay:10.37,2013-01-28 23:20:00,
2013-01-28 18:25:00,34.7,30.1,29.94,South,184,2.0,6.0,83,0.00,CLR,,0.08,WeatherDisplay:10.37,2013-01-28 23:25:00,
2013-01-28 18:30:00,34.7,30.1,29.94,South,188,2.0,5.0,83,0.00,CLR,,0.08,WeatherDisplay:10.37,2013-01-28 23:30:00,
2013-01-28 18:35:00,34.7,30.1,29.94,SE,135,3.5,3.5,83,0.00,CLR,,0.08,WeatherDisplay:10.37,2013-01-28 23:35:00,
2013-01-28 18:40:00,34.7,30.4,29.94,South,180,3.5,3.5,84,0.00,CLR,,0.08,WeatherDisplay:10.37,2013-01-28 23:40:00,
2013-01-28 18:45:00,34.7,30.4,29.93,South,180,3.5,3.5,84,0.00,CLR,,0.08,WeatherDisplay:10.37,2013-01-28 23:45:00,
2013-01-28 18:50:00,34.7,30.4,29.93,South,180,3.5,0.0,84,0.00,CLR,,0.08,WeatherDisplay:10.37,2013-01-28 23:50:00,
2013-01-28 18:55:00,34.9,30.5,29.94,South,176,1.0,4.0,84,0.00,CLR,,0.08,WeatherDisplay:10.37,2013-01-28 23:55:00,
2013-01-28 19:00:00,34.9,30.8,29.93,SW,225,3.5,3.5,85,0.00,CLR,,0.08,WeatherDisplay:10.37,2013-01-29 00:00:00,
2013-01-28 19:05:00,34.9,30.8,29.93,South,180,2.3,0.0,85,0.00,CLR,,0.08,WeatherDisplay:10.37,2013-01-29 00:05:00,
2013-01-28 19:10:00,34.9,30.8,29.94,South,176,1.0,5.0,85,0.00,CLR,,0.08,WeatherDisplay:10.37,2013-01-29 00:10:00,
2013-01-28 19:15:00,34.9,30.8,29.93,SE,135,3.5,3.5,85,0.00,CLR,,0.08,WeatherDisplay:10.37,2013-01-29 00:15:00,
2013-01-28 19:20:00,34.9,30.8,29.93,SSW,203,1.0,5.0,85,0.00,CLR,,0.08,WeatherDisplay:10.37,2013-01-29 00:20:00,
2013-01-28 19:25:00,35.1,31.3,29.93,South,186,2.0,5.0,86,0.00,CLR,,0.08,WeatherDisplay:10.37,2013-01-29 00:25:00,
2013-01-28 19:30:00,35.1,31.3,29.92,South,180,5.8,5.8,86,0.00,CLR,,0.08,WeatherDisplay:10.37,2013-01-29 00:30:00,
2013-01-28 19:35:00,35.1,31.3,29.93,SW,225,6.9,6.9,86,0.00,CLR,,0.08,WeatherDisplay:10.37,2013-01-29 00:35:00,
2013-01-28 19:40:00,35.1,31.3,29.93,SW,224,1.0,5.0,86,0.00,CLR,,0.08,WeatherDisplay:10.37,2013-01-29 00:40:00,
2013-01-28 19:45:00,35.2,31.5,29.94,West,270,4.6,4.6,86,0.00,CLR,,0.08,WeatherDisplay:10.37,2013-01-29 00:45:00,
2013-01-28 19:50:00,35.2,31.5,29.94,SSW,208,1.0,4.0,86,0.00,CLR,,0.08,WeatherDisplay:10.37,2013-01-29 00:50:00,
2013-01-28 19:55:00,35.2,31.5,29.93,East,90,3.5,3.5,86,0.00,CLR,,0.08,WeatherDisplay:10.37,2013-01-29 00:55:00,
2013-01-28 20:00:00,35.4,31.9,29.93,South,180,5.8,5.8,87,0.00,CLR,,0.08,WeatherDisplay:10.37,2013-01-29 01:00:00,
2013-01-28 20:05:00,35.4,31.6,29.92,South,180,1.0,6.0,86,0.00,CLR,,0.08,WeatherDisplay:10.37,2013-01-29 01:05:00,
2013-01-28 20:10:00,35.4,31.9,29.92,SE,135,3.5,3.5,87,0.00,CLR,,0.08,WeatherDisplay:10.37,2013-01-29 01:10:00,
2013-01-28 20:15:00,35.4,31.9,29.92,South,184,1.0,4.0,87,0.00,CLR,,0.08,WeatherDisplay:10.37,2013-01-29 01:15:00,
2013-01-28 20:20:00,35.4,31.9,29.92,South,178,2.0,8.0,87,0.00,CLR,,0.08,WeatherDisplay:10.37,2013-01-29 01:20:00,
2013-01-28 20:25:00,35.4,31.9,29.91,South,180,4.6,0.0,87,0.00,CLR,,0.08,WeatherDisplay:10.37,2013-01-29 01:25:00,
2013-01-28 20:30:00,35.4,31.9,29.91,SSW,203,2.0,5.0,87,0.00,CLR,,0.08,WeatherDisplay:10.37,2013-01-29 01:30:00,
2013-01-28 20:35:00,35.4,31.9,29.91,South,189,2.0,6.0,87,0.00,CLR,,0.08,WeatherDisplay:10.37,2013-01-29 01:35:00,
2013-01-28 20:40:00,35.4,31.9,29.91,SSW,197,2.0,6.0,87,0.00,CLR,,0.08,WeatherDisplay:10.37,2013-01-29 01:40:00,
2013-01-28 20:45:00,35.6,32.1,29.91,SSW,196,2.0,6.0,87,0.00,CLR,,0.08,WeatherDisplay:10.37,2013-01-29 01:45:00,
2013-01-28 20:50:00,35.6,32.1,29.91,South,180,4.6,4.6,87,0.00,CLR,,0.08,WeatherDisplay:10.37,2013-01-29 01:50:00,
2013-01-28 20:55:00,35.6,32.1,29.91,SSW,202,3.5,3.5,87,0.00,CLR,,0.08,WeatherDisplay:10.37,2013-01-29 01:55:00,
2013-01-28 21:00:00,35.6,32.1,29.90,South,179,2.0,6.0,87,0.00,CLR,,0.08,WeatherDisplay:10.37,2013-01-29 02:00:00,
2013-01-28 21:05:00,35.6,32.1,29.91,South,180,4.6,4.6,87,0.00,CLR,,0.08,WeatherDisplay:10.37,2013-01-29 02:05:00,
2013-01-28 21:10:00,35.6,32.1,29.90,South,177,0.0,7.0,87,0.00,CLR,,0.08,WeatherDisplay:10.37,2013-01-29 02:10:00,
2013-01-28 21:15:00,35.4,31.9,29.90,SSE,162,1.0,3.0,87,0.00,CLR,,0.08,WeatherDisplay:10.37,2013-01-29 02:15:00,
2013-01-28 21:20:00,35.4,31.9,29.91,South,185,3.0,7.0,87,0.00,CLR,,0.08,WeatherDisplay:10.37,2013-01-29 02:20:00,
2013-01-28 21:25:00,35.4,31.9,29.89,South,177,3.0,6.0,87,0.00,CLR,,0.08,WeatherDisplay:10.37,2013-01-29 02:25:00,
2013-01-28 21:30:00,35.6,32.1,29.90,South,178,1.0,6.0,87,0.00,CLR,,0.08,WeatherDisplay:10.37,2013-01-29 02:30:00,
2013-01-28 21:35:00,35.6,32.1,29.89,SSW,202,4.6,4.6,87,0.00,CLR,,0.08,WeatherDisplay:10.37,2013-01-29 02:35:00,
2013-01-28 21:40:00,35.6,32.1,29.89,ENE,68,4.6,4.6,87,0.00,CLR,,0.08,WeatherDisplay:10.37,2013-01-29 02:40:00,
2013-01-28 21:45:00,35.6,32.1,29.89,South,182,1.0,7.0,87,0.00,CLR,,0.08,WeatherDisplay:10.37,2013-01-29 02:45:00,
2013-01-28 21:50:00,35.6,32.1,29.89,South,180,5.8,5.8,87,0.00,CLR,,0.08,WeatherDisplay:10.37,2013-01-29 02:50:00,
2013-01-28 21:55:00,35.6,32.1,29.89,South,180,2.0,5.0,87,0.00,CLR,,0.08,WeatherDisplay:10.37,2013-01-29 02:55:00,
2013-01-28 22:00:00,35.6,32.1,29.89,South,180,3.8,3.8,87,0.00,CLR,,0.08,WeatherDisplay:10.37,2013-01-29 03:00:00,
2013-01-28 22:05:00,35.6,32.1,29.89,South,180,3.5,3.5,87,0.00,CLR,,0.08,WeatherDisplay:10.37,2013-01-29 03:05:00,
2013-01-28 22:10:00,35.6,32.4,29.89,SSE,160,1.0,7.0,88,0.00,CLR,,0.08,WeatherDisplay:10.37,2013-01-29 03:10:00,
2013-01-28 22:15:00,35.6,32.4,29.89,SSE,168,2.0,6.0,88,0.00,CLR,,0.08,WeatherDisplay:10.37,2013-01-29 03:15:00,
2013-01-28 22:20:00,35.6,32.4,29.89,SSE,166,1.0,6.0,88,0.00,CLR,,0.08,WeatherDisplay:10.37,2013-01-29 03:20:00,
2013-01-28 22:25:00,35.7,32.5,29.89,SSE,160,2.0,6.0,88,0.00,CLR,,0.08,WeatherDisplay:10.37,2013-01-29 03:25:00,
2013-01-28 22:30:00,35.8,32.6,29.89,South,180,3.5,3.5,88,0.00,CLR,,0.08,WeatherDisplay:10.37,2013-01-29 03:30:00,
2013-01-28 22:35:00,35.8,32.6,29.89,SSW,193,2.0,8.0,88,0.00,CLR,,0.08,WeatherDisplay:10.37,2013-01-29 03:35:00,
2013-01-28 22:40:00,35.8,32.6,29.89,SSW,193,1.0,8.0,88,0.00,CLR,,0.08,WeatherDisplay:10.37,2013-01-29 03:40:00,
2013-01-28 22:45:00,35.8,32.6,29.89,South,176,2.0,7.0,88,0.00,CLR,,0.08,WeatherDisplay:10.37,2013-01-29 03:45:00,
2013-01-28 22:50:00,36.0,32.8,29.88,South,180,5.8,5.8,88,0.00,CLR,,0.08,WeatherDisplay:10.37,2013-01-29 03:50:00,
2013-01-28 22:55:00,36.0,32.8,29.88,South,180,6.9,6.9,88,0.00,CLR,,0.08,WeatherDisplay:10.37,2013-01-29 03:55:00,
2013-01-28 23:00:00,36.0,32.8,29.88,SE,135,3.5,3.5,88,0.00,CLR,,0.08,WeatherDisplay:10.37,2013-01-29 04:00:00,
2013-01-28 23:05:00,36.1,32.9,29.88,South,182,3.0,8.0,88,0.00,CLR,,0.08,WeatherDisplay:10.37,2013-01-29 04:05:00,
2013-01-28 23:10:00,36.1,32.9,29.88,South,180,4.6,4.6,88,0.00,CLR,,0.08,WeatherDisplay:10.37,2013-01-29 04:10:00,
2013-01-28 23:15:00,36.1,32.9,29.88,South,186,5.0,8.0,88,0.00,CLR,,0.08,WeatherDisplay:10.37,2013-01-29 04:15:00,
2013-01-28 23:20:00,36.3,33.1,29.88,South,180,6.9,6.9,88,0.00,CLR,,0.08,WeatherDisplay:10.37,2013-01-29 04:20:00,
2013-01-28 23:25:00,36.3,33.1,29.88,West,270,5.8,5.8,88,0.00,CLR,,0.08,WeatherDisplay:10.37,2013-01-29 04:25:00,
2013-01-28 23:30:00,36.5,33.3,29.89,SSW,200,1.0,6.0,88,0.00,CLR,,0.08,WeatherDisplay:10.37,2013-01-29 04:30:00,
2013-01-28 23:35:00,36.5,33.3,29.89,WNW,292,3.1,3.1,88,0.00,CLR,,0.08,WeatherDisplay:10.37,2013-01-29 04:35:00,
2013-01-28 23:40:00,36.5,33.3,29.89,SW,225,4.6,4.6,88,0.00,CLR,,0.08,WeatherDisplay:10.37,2013-01-29 04:40:00,
2013-01-28 23:45:00,36.5,33.3,29.88,SSW,212,1.0,6.0,88,0.00,CLR,,0.08,WeatherDisplay:10.37,2013-01-29 04:45:00,
2013-01-28 23:50:00,36.5,33.3,29.89,South,184,0.0,3.0,88,0.00,CLR,,0.08,WeatherDisplay:10.37,2013-01-29 04:50:00,
2013-01-28 23:55:00,36.3,32.8,29.88,South,180,4.6,4.6,87,0.00,CLR,,0.08,WeatherDisplay:10.37,2013-01-29 04:55:00,